Wind_Speed
52 54 55 50 50 49 51 47 44 37 37 34 32 30 29 25 28 28 24 24 22 22 19 19 19 20 22
53 54 54 51 55 47 47 50 43 36 35 34 31 30 27 25 29 29 23 27 24 20 19 19 19 20 21
50 54 54 48 51 48 47 45 40 34 35 29 29 29 27 26 29 28 27 24 20 22 20 18 19 21 23
49 50 52 43 46 51 45 45 38 33 31 25 27 25 21 25 27 29 27 24 19 20 20 20 20 22 24
48 52 49 44 44 43 46 34 30 27 25 23 22 22 20 26 31 28 26 30 27 26 22 20 21 22 21
52 53 44 46 48 45 33 31 26 22 22 25 23 23 25 31 37 31 33 31 22 21 20 18 20 20 17
49 47 42 45 40 34 27 23 25 22 24 23 21 21 19 22 25 26 24 19 18 17 14 15 18 17 14
35 41 36 35 32 26 22 24 21 22 20 20 18 17 19 20 19 16 19 20 17 13 13 16 17 14 13
24 38 34 26 24 23 20 17 20 18 16 18 18 19 22 21 16 19 20 17 13 13 14 14 14 12 10
29 29 22 21 19 17 16 18 19 18 17 20 20 22 24 24 18 22 22 17 13 14 13 14 13 9 9
20 19 18 17 13 14 17 19 19 18 17 20 22 22 23 22 20 22 24 17 16 15 13 13 11 8 9
14 12 11 13 12 13 16 16 15 17 17 20 23 22 20 19 20 21 23 20 17 15 14 13 9 8 8
9 10 10 11 12 13 14 14 15 15 17 20 21 22 22 19 16 16 18 16 17 15 14 12 9 8 8
10 9 10 12 12 12 12 13 13 14 15 17 19 20 20 18 16 15 18 18 16 15 14 12 9 9 8
10 10 11 10 10 10 11 12 13 13 14 16 17 20 20 22 20 18 17 16 15 15 14 11 11 10 10
10 10 8 9 9 10 11 13 14 14 14 13 15 20 22 21 20 19 17 16 16 15 12 12 12 11 11
10 8 7 9 9 10 11 11 12 15 14 14 17 18 17 17 16 16 16 16 16 13 12 13 12 12 12
Wind_Direction
282 281 283 279 280 281 285 282 284 277 274 271 270 265 263 260 253 261 262 268 272 280 279 275 282 287 284
277 280 276 281 278 280 286 278 282 278 270 266 262 260 256 254 254 260 263 267 266 274 280 280 287 291 292
277 275 282 275 273 274 280 277 283 270 268 265 260 260 255 249 251 249 262 256 263 277 280 278 285 294 298
274 272 272 280 285 281 271 274 273 264 264 261 260 261 255 247 244 250 251 252 276 281 271 282 286 296 299
272 269 272 278 280 277 270 255 260 263 265 252 257 262 246 233 222 234 239 249 276 277 270 277 287 294 293
266 270 272 282 268 264 252 248 248 254 261 262 263 259 249 234 233 248 259 270 266 267 260 277 285 289 286
269 265 267 270 258 253 242 235 248 251 256 258 254 248 239 232 236 241 246 251 254 252 270 280 285 282 281
270 274 269 260 251 242 239 243 248 252 251 248 243 226 226 227 231 237 247 244 245 263 278 282 279 274 280
286 264 254 237 238 238 242 248 251 253 248 242 234 221 227 221 224 250 240 235 251 268 286 280 273 269 276
267 244 241 242 240 239 247 251 255 250 248 246 236 227 223 223 221 240 232 242 256 270 281 278 265 271 280
251 253 250 244 240 245 251 253 253 256 250 244 232 226 225 226 229 236 235 246 260 269 277 270 259 266 276
257 249 252 252 252 254 255 256 256 251 240 232 222 224 226 231 235 240 238 253 254 267 272 260 252 259 267
260 254 249 250 250 253 256 254 249 244 238 231 226 230 230 233 232 236 237 244 254 261 261 248 245 254 263
254 251 254 254 253 255 255 253 249 244 237 228 223 226 219 221 203 212 230 242 250 253 249 239 242 249 253
248 249 248 254 262 265 264 258 247 238 232 225 219 216 216 197 194 206 225 240 244 244 238 237 243 247 249
240 241 251 265 271 272 269 259 241 227 220 215 209 205 198 197 202 217 230 240 240 235 234 242 246 248 246
237 243 256 261 265 266 263 248 231 213 202 197 205 208 211 215 218 223 233 234 230 229 240 247 249 246 239
Height
3042 3039 3037 3037 3035 3034 3032 3031 3031 3030 3029 3029 3029 3029 3029 3030 3029 3029 3031 3030 3028 3028 3025 3025 3025 3024 3022
3030 3024 3026 3026 3022 3020 3020 3019 3019 3018 3018 3018 3019 3020 3021 3022 3022 3022 3023 3024 3022 3023 3021 3021 3020 3019 3016
3016 3014 3012 3012 3009 3008 3007 3007 3008 3007 3008 3009 3010 3012 3014 3014 3015 3016 3017 3018 3017 3017 3016 3015 3014 3013 3010
3003 3000 3000 2999 2999 2999 2998 2997 2997 2997 2998 2999 3001 3003 3005 3006 3006 3007 3010 3012 3011 3011 3011 3010 3009 3007 3005
2990 2988 2986 2987 2987 2989 2989 2989 2989 2989 2989 2990 2993 2995 2998 3000 3001 3003 3005 3006 3005 3006 3006 3005 3004 3002 3000
2975 2975 2975 2975 2976 2977 2978 2980 2983 2979 2986 2986 2987 2987 2989 2991 2994 2996 2998 3000 3000 3001 3001 3001 2999 2998 2996
2962 2961 2962 2963 2965 2968 2970 2973 2974 2978 2978 2979 2980 2981 2982 2986 2988 2991 2993 2995 2996 2997 2997 2996 2995 2994 2992
2955 2955 2953 2954 2956 2959 2963 2966 2968 2971 2972 2974 2975 2976 2978 2981 2984 2986 2988 2991 2992 2992 2992 2992 2991 2990 2989
2947 2944 2946 2948 2951 2954 2956 2960 2962 2964 2966 2969 2970 2972 2974 2977 2980 2982 2985 2987 2988 2989 2989 2988 2987 2987 2985
2941 2942 2943 2945 2947 2949 2953 2954 2957 2959 2961 2963 2965 2967 2969 2973 2976 2979 2982 2984 2985 2985 2985 2985 2984 2983 2983
2938 2939 2940 2942 2944 2946 2948 2950 2952 2953 2955 2957 2959 2962 2965 2969 2972 2975 2978 2980 2981 2982 2982 2982 2981 2981 2981
2936 2937 2938 2939 2940 2942 2944 2945 2946 2948 2950 2951 2954 2958 2962 2965 2967 2971 2974 2977 2978 2978 2978 2979 2978 2979 2979
2934 2935 2935 2937 2938 2939 2940 2940 2942 2943 2944 2947 2950 2953 2956 2960 2963 2966 2971 2973 2974 2975 2975 2976 2976 2977 2977
2932 2933 2933 2935 2935 2935 2936 2936 2937 2939 2941 2943 2946 2948 2951 2955 2958 2962 2966 2969 2970 2971 2972 2973 2974 2975 2975
2930 2931 2932 2932 2931 2932 2932 2933 2934 2935 2937 2939 2941 2944 2947 2951 2954 2959 2962 2965 2967 2968 2969 2970 2971 2972 2972
2928 2929 2928 2928 2928 2928 2929 2930 2931 2932 2934 2936 2938 2941 2945 2949 2952 2956 2959 2962 2963 2964 2966 2967 2968 2969 2970
2925 2925 2925 2925 2925 2926 2926 2927 2928 2930 2932 2934 2937 2941 2944 2947 2950 2954 2957 2958 2960 2962 2963 2964 2965 2966 2967